Date String (YYYY-MM-DD hh:mm:ss) UTC,Instrument flags,Ambient pressure (hPa),Sample flow (lpm),Bypass flow (lpm),Sample temperature (°C),Ambient temperature (°C),ASC tube jacket temperature (°C),LED temperature (°C),Box temperature (°C),Sample RH (%),Span deviation,Mass concentration (μg/m³),Mass concentration (μg/m³),Mass concentration (μg/m³)
DateTimeUTC,F1_M11,P_M11,Q1_M11,Q2_M11,T1_M11,T2_M11,T3_M11,T4_M11,T5_M11,U1_M11,ZSPAN_M11,X0_M11,X2_M11,X1_M11
2022-02-19 00:00:00,,0829.5,5.01,0.00,25.5,24.7,00.0,34.7,27.1,07.8,0000.0,0008.97,0004.85,0004.58
2022-02-19 00:01:00,,0829.5,5.00,0.00,25.5,24.7,00.0,34.7,27.1,07.7,0000.0,0009.03,0004.92,0004.62
2022-02-19 00:02:00,,0829.5,5.00,0.00,25.4,24.6,00.0,34.7,27.1,07.8,0000.0,0009.01,0004.94,0004.65
2022-02-19 00:03:00,,0829.5,5.00,0.00,25.4,24.6,00.0,34.6,27.1,07.8,0000.0,0009.05,0004.97,0004.68
2022-02-19 00:04:00,,0829.5,5.00,0.00,25.4,24.6,00.0,34.6,27.1,07.8,0000.0,0009.35,0005.02,0004.71
2022-02-19 00:05:00,,0829.6,5.00,0.00,25.4,24.6,00.0,34.6,27.1,07.8,0000.0,0009.38,0005.04,0004.74
2022-02-19 00:06:00,,0829.6,5.00,0.00,25.4,24.6,00.0,34.6,27.1,07.7,0000.0,0009.36,0005.09,0004.78
2022-02-19 00:07:00,,0829.6,5.00,0.00,25.4,24.7,00.0,34.6,27.1,07.7,0000.0,0009.49,0005.14,0004.80
2022-02-19 00:08:00,,0829.6,5.00,0.00,25.4,24.6,00.0,34.6,27.1,07.7,0000.0,0009.43,0005.15,0004.81
2022-02-19 00:09:00,,0829.5,5.00,0.00,25.3,24.6,00.0,34.5,27.1,07.7,0000.0,0010.22,0005.18,0004.82
2022-02-19 00:10:00,,0829.6,5.00,0.00,25.3,24.6,00.0,34.5,27.0,07.8,0000.0,0009.80,0005.19,0004.82
2022-02-19 00:11:00,,0829.5,5.00,0.00,25.3,24.6,00.0,34.5,27.0,07.7,0000.0,0009.76,0005.18,0004.82
2022-02-19 00:12:00,,0829.5,5.00,0.00,25.3,24.6,00.0,34.5,27.0,07.8,0000.0,0009.67,0005.14,0004.83
2022-02-19 00:13:00,,0829.5,5.00,0.00,25.3,24.6,00.0,34.5,27.0,07.8,0000.0,0009.83,0005.16,0004.83
2022-02-19 00:14:00,,0829.5,5.00,0.00,25.3,24.5,00.0,34.5,26.9,07.9,0000.0,0010.29,0005.15,0004.83
2022-02-19 00:15:00,,0829.6,4.99,0.00,25.3,24.5,00.0,34.4,26.9,07.9,0000.0,0010.63,0005.15,0004.83
2022-02-19 00:16:00,,0829.5,5.00,0.00,25.3,24.5,00.0,34.4,26.9,07.9,0000.0,0011.34,0005.18,0004.83
2022-02-19 00:17:00,,0829.6,5.01,0.00,25.3,24.5,00.0,34.4,27.0,07.9,0000.0,0011.76,0005.17,0004.82
2022-02-19 00:18:00,,0829.6,5.01,0.00,25.3,24.5,00.0,34.4,27.0,07.9,0000.0,0011.70,0005.16,0004.82
2022-02-19 00:19:00,,0829.6,5.00,0.00,25.2,24.5,00.0,34.4,26.9,07.9,0000.0,0011.73,0005.19,0004.84
2022-02-19 00:20:00,,0829.5,5.00,0.00,25.2,24.5,00.0,34.4,26.9,07.9,0000.0,0010.74,0005.18,0004.85
2022-02-19 00:21:00,,0829.6,5.00,0.00,25.2,24.4,00.0,34.4,26.9,07.9,0000.0,0010.48,0005.20,0004.86
2022-02-19 00:22:00,,0829.5,5.00,0.00,25.2,24.4,00.0,34.4,26.8,07.9,0000.0,0010.55,0005.21,0004.86
2022-02-19 00:23:00,,0829.6,4.99,0.00,25.1,24.3,00.0,34.3,26.8,07.9,0000.0,0010.65,0005.23,0004.87
2022-02-19 00:24:00,,0829.6,5.01,0.00,25.1,24.3,00.0,34.3,26.7,07.9,0000.0,0010.53,0005.23,0004.89
2022-02-19 00:25:00,,0829.6,5.01,0.00,25.1,24.3,00.0,34.3,26.7,07.9,0000.0,0010.10,0005.22,0004.89
2022-02-19 00:26:00,,0829.6,5.00,0.00,25.1,24.3,00.0,34.3,26.7,07.9,0000.0,0009.39,0005.20,0004.88
2022-02-19 00:27:00,,0829.6,5.01,0.00,25.0,24.3,00.0,34.3,26.7,08.0,0000.0,0008.77,0005.16,0004.86
2022-02-19 00:28:00,,0829.6,5.01,0.00,25.0,24.2,00.0,34.2,26.7,07.9,0000.0,0008.64,0005.13,0004.84
2022-02-19 00:29:00,,0829.6,4.99,0.00,25.0,24.2,00.0,34.2,26.7,07.9,0000.0,0008.71,0005.10,0004.83
2022-02-19 00:30:00,,0829.6,5.00,0.00,25.0,24.2,00.0,34.2,26.7,07.7,0000.0,0008.66,0005.07,0004.81
2022-02-19 00:31:00,,0829.6,5.00,0.00,25.0,24.2,00.0,34.2,26.7,07.7,0000.0,0008.62,0005.06,0004.80
2022-02-19 00:32:00,,0829.6,5.00,0.00,25.0,24.3,00.0,34.2,26.7,07.7,0000.0,0008.65,0005.06,0004.79
2022-02-19 00:33:00,,0829.6,5.00,0.00,25.0,24.3,00.0,34.2,26.8,07.7,0000.0,0008.74,0005.10,0004.80
2022-02-19 00:34:00,,0829.6,5.00,0.00,25.1,24.4,00.0,34.2,26.9,07.7,0000.0,0008.77,0005.13,0004.80
2022-02-19 00:35:00,,0829.5,5.00,0.00,25.1,24.4,00.0,34.2,26.9,07.6,0000.0,0009.02,0005.15,0004.78
2022-02-19 00:36:00,,0829.6,5.00,0.00,25.1,24.4,00.0,34.2,26.8,07.6,0000.0,0009.15,0005.19,0004.78
2022-02-19 00:37:00,,0829.6,5.00,0.00,25.1,24.4,00.0,34.1,26.8,07.6,0000.0,0009.23,0005.21,0004.78
2022-02-19 00:38:00,,0829.6,5.00,0.00,25.1,24.4,00.0,34.2,26.8,07.6,0000.0,0009.32,0005.20,0004.76
2022-02-19 00:39:00,,0829.6,5.00,0.00,25.1,24.4,00.0,34.1,26.8,07.7,0000.0,0008.86,0005.15,0004.73
2022-02-19 00:40:00,,0829.6,5.00,0.00,25.1,24.4,00.0,34.2,26.8,07.7,0000.0,0008.80,0005.09,0004.67
2022-02-19 00:41:00,,0829.6,5.00,0.00,25.1,24.4,00.0,34.1,26.8,07.8,0000.0,0008.68,0005.01,0004.61
2022-02-19 00:42:00,,0829.6,4.99,0.00,25.1,24.4,00.0,34.1,26.8,07.6,0000.0,0008.54,0004.90,0004.51
2022-02-19 00:43:00,,0829.5,4.99,0.00,25.0,24.3,00.0,34.1,26.7,07.7,0000.0,0008.40,0004.77,0004.39
2022-02-19 00:44:00,,0829.5,5.00,0.00,25.0,24.2,00.0,34.1,26.7,07.6,0000.0,0008.44,0004.64,0004.28
2022-02-19 00:45:00,,0829.5,5.00,0.00,25.0,24.2,00.0,34.1,26.7,07.7,0000.0,0008.34,0004.50,0004.15
2022-02-19 00:46:00,,0829.6,5.00,0.00,25.0,24.2,00.0,34.1,26.7,07.7,0000.0,0007.93,0004.30,0003.97
2022-02-19 00:47:00,,0829.5,5.01,0.00,24.9,24.2,00.0,34.1,26.7,07.8,0000.0,0007.53,0004.05,0003.76
2022-02-19 00:48:00,,0829.6,5.00,0.00,25.0,24.2,00.0,34.1,26.7,07.9,0000.0,0007.13,0003.82,0003.54
2022-02-19 00:49:00,,0829.6,5.00,0.00,25.0,24.3,00.0,34.1,26.7,08.0,0000.0,0006.38,0003.57,0003.32
2022-02-19 00:50:00,,0829.6,4.99,0.00,25.0,24.3,00.0,34.1,26.7,08.1,0000.0,0006.48,0003.35,0003.07
2022-02-19 00:51:00,,0829.8,4.99,0.00,25.0,24.3,00.0,34.1,26.7,08.3,0000.0,0006.04,0003.17,0002.78
2022-02-19 00:52:00,,0829.8,5.01,0.00,24.9,24.2,00.0,34.0,26.6,08.4,0000.0,0005.87,0003.05,0002.60
2022-02-19 00:53:00,,0829.8,5.01,0.00,24.9,24.1,00.0,34.0,26.5,08.2,0000.0,0005.83,0003.04,0002.60
2022-02-19 00:54:00,,0829.8,5.00,0.00,24.8,24.0,00.0,34.0,26.5,07.8,0000.0,0005.83,0003.07,0002.62
2022-02-19 00:55:00,,0829.8,5.00,0.00,24.8,24.1,00.0,34.0,26.5,08.2,0000.0,0005.90,0003.06,0002.61
2022-02-19 00:56:00,,0829.8,4.99,0.00,24.8,24.1,00.0,34.0,26.6,08.2,0000.0,0007.20,0003.13,0002.69
2022-02-19 00:57:00,,0829.9,4.99,0.00,24.8,24.0,00.0,33.9,26.5,08.2,0000.0,0007.85,0003.28,0002.98
2022-02-19 00:58:00,,0829.8,5.01,0.00,24.7,23.9,00.0,33.9,26.4,08.2,0000.0,0008.24,0003.50,0003.24
2022-02-19 00:59:00,,0829.8,5.01,0.00,24.7,23.9,00.0,33.9,26.3,08.3,0000.0,0008.86,0003.72,0003.42
